TimeMST,TemperatureF,Dew PointF,Humidity,Sea Level PressureIn,VisibilityMPH,Wind Direction,Wind SpeedMPH,Gust SpeedMPH,PrecipitationIn,Events,Conditions,WindDirDegrees,DateUTC
12:13 AM,14.0,-4.0,45,29.92,10.0,SW,17.3,-,N/A,,Clear,220,2014-02-21 07:13:00
12:33 AM,14.0,-4.0,45,29.91,10.0,SW,18.4,-,N/A,,Clear,230,2014-02-21 07:33:00
12:54 AM,14.0,-4.0,45,29.91,10.0,SW,19.6,-,N/A,,Clear,230,2014-02-21 07:54:00
1:13 AM,14.0,-4.0,45,29.90,10.0,SW,18.4,-,N/A,,Clear,230,2014-02-21 08:13:00
1:33 AM,14.0,-4.0,45,29.90,10.0,SW,21.9,-,N/A,,Clear,220,2014-02-21 08:33:00
1:51 AM,14.0,-5.8,41,29.89,10.0,SW,20.7,49.5,N/A,,Clear,220,2014-02-21 08:51:00
2:11 AM,14.0,-5.8,41,29.88,10.0,SW,19.6,-,N/A,,Clear,230,2014-02-21 09:11:00
2:32 AM,14.0,-5.8,41,29.87,10.0,North,-9999.0,-,N/A,,Clear,0,2014-02-21 09:32:00
2:52 AM,12.2,-4.0,48,29.87,10.0,SW,19.6,-,N/A,,Clear,230,2014-02-21 09:52:00
3:12 AM,10.4,-5.8,48,29.87,10.0,North,-9999.0,-,N/A,,Clear,0,2014-02-21 10:12:00
3:31 AM,10.4,-5.8,48,29.87,10.0,North,-9999.0,-,N/A,,Clear,0,2014-02-21 10:31:00
3:54 AM,12.2,-4.0,48,29.88,10.0,SW,18.4,-,N/A,,Clear,230,2014-02-21 10:54:00
4:13 AM,10.4,-4.0,52,29.89,10.0,North,-9999.0,-,N/A,,Clear,0,2014-02-21 11:13:00
4:30 AM,10.4,-4.0,52,29.90,10.0,North,-9999.0,-,N/A,,Clear,0,2014-02-21 11:30:00
4:53 AM,12.2,-4.0,48,29.90,10.0,North,-9999.0,-,N/A,,Clear,0,2014-02-21 11:53:00
5:12 AM,12.2,-4.0,48,29.90,10.0,SW,20.7,-,N/A,,Clear,230,2014-02-21 12:12:00
5:27 AM,12.2,-4.0,48,29.91,10.0,SW,18.4,-,N/A,,Clear,230,2014-02-21 12:27:00
5:54 AM,12.2,-4.0,48,29.92,10.0,WSW,10.4,21.9,N/A,,Clear,240,2014-02-21 12:54:00
6:13 AM,10.4,-4.0,52,29.92,10.0,SW,15.0,28.8,N/A,,Clear,230,2014-02-21 13:13:00
6:34 AM,10.4,-4.0,52,29.94,10.0,SW,12.7,28.8,N/A,,Clear,230,2014-02-21 13:34:00
6:54 AM,12.2,-4.0,48,29.94,10.0,SW,10.4,-,N/A,,Clear,230,2014-02-21 13:54:00
7:13 AM,14.0,-4.0,45,29.95,10.0,North,-9999.0,-,N/A,,Clear,0,2014-02-21 14:13:00
7:29 AM,14.0,-4.0,45,29.96,10.0,West,6.9,-,N/A,,Clear,260,2014-02-21 14:29:00
7:54 AM,14.0,-2.2,49,29.97,10.0,WSW,9.2,-,N/A,,Clear,240,2014-02-21 14:54:00
8:09 AM,15.8,-4.0,41,29.97,10.0,WSW,6.9,16.1,N/A,,Clear,250,2014-02-21 15:09:00
8:30 AM,17.6,-2.2,42,29.98,10.0,WSW,10.4,20.7,N/A,,Clear,240,2014-02-21 15:30:00
8:54 AM,21.2,-0.4,39,29.99,10.0,SW,12.7,26.5,N/A,,Clear,230,2014-02-21 15:54:00
9:11 AM,21.2,-0.4,39,29.99,10.0,WSW,9.2,24.2,N/A,,Clear,240,2014-02-21 16:11:00
9:28 AM,23.0,-0.4,36,29.98,10.0,SW,15.0,32.2,N/A,,Clear,230,2014-02-21 16:28:00
9:36 AM,23.0,1.4,39,29.98,10.0,SW,16.1,28.8,N/A,,Clear,220,2014-02-21 16:36:00
10:10 AM,26.6,3.2,37,29.99,10.0,SW,12.7,24.2,N/A,,Clear,230,2014-02-21 17:10:00
10:33 AM,26.6,3.2,37,30.00,10.0,SW,13.8,24.2,N/A,,Clear,220,2014-02-21 17:33:00
10:52 AM,26.6,3.2,37,30.00,10.0,WSW,11.5,26.5,N/A,,Clear,240,2014-02-21 17:52:00
11:14 AM,28.4,5.0,37,30.00,10.0,SW,10.4,24.2,N/A,,Clear,230,2014-02-21 18:14:00
11:34 AM,30.2,5.0,34,30.00,10.0,SW,10.4,23.0,N/A,,Clear,230,2014-02-21 18:34:00
11:52 AM,30.2,5.0,34,30.00,10.0,SW,10.4,24.2,N/A,,Clear,230,2014-02-21 18:52:00
12:08 PM,30.2,5.0,34,30.00,10.0,SW,13.8,24.2,N/A,,Clear,220,2014-02-21 19:08:00
12:34 PM,32.0,5.0,32,30.00,10.0,SW,13.8,23.0,N/A,,Clear,220,2014-02-21 19:34:00
12:54 PM,32.0,8.6,38,29.99,10.0,SW,12.7,21.9,N/A,,Clear,220,2014-02-21 19:54:00
1:12 PM,32.0,8.6,38,29.98,10.0,SW,12.7,25.3,N/A,,Clear,220,2014-02-21 20:12:00
1:33 PM,32.0,6.8,35,29.98,10.0,SW,11.5,23.0,N/A,,Clear,220,2014-02-21 20:33:00
1:52 PM,33.8,6.8,32,29.97,10.0,SW,15.0,23.0,N/A,,Clear,220,2014-02-21 20:52:00
2:10 PM,33.8,6.8,32,29.97,10.0,SW,12.7,24.2,N/A,,Clear,230,2014-02-21 21:10:00
2:32 PM,33.8,5.0,30,29.97,10.0,SW,6.9,-,N/A,,Clear,230,2014-02-21 21:32:00
2:54 PM,33.8,6.8,32,29.97,10.0,WSW,6.9,20.7,N/A,,Clear,240,2014-02-21 21:54:00
3:10 PM,33.8,5.0,30,29.96,10.0,West,8.1,21.9,N/A,,Clear,260,2014-02-21 22:10:00
3:34 PM,32.0,5.0,32,29.96,10.0,WSW,8.1,21.9,N/A,,Clear,240,2014-02-21 22:34:00
3:51 PM,32.0,5.0,32,29.95,10.0,SW,10.4,23.0,N/A,,Clear,220,2014-02-21 22:51:00
4:09 PM,32.0,5.0,32,29.94,10.0,SW,12.7,21.9,N/A,,Clear,230,2014-02-21 23:09:00
4:34 PM,30.2,5.0,34,29.94,10.0,SW,11.5,26.5,N/A,,Clear,230,2014-02-21 23:34:00
4:54 PM,30.2,3.2,32,29.93,10.0,WSW,8.1,18.4,N/A,,Clear,250,2014-02-21 23:54:00
5:12 PM,28.4,5.0,37,29.94,10.0,WSW,9.2,21.9,N/A,,Clear,240,2014-02-22 00:12:00
5:32 PM,28.4,3.2,34,29.95,10.0,SW,6.9,-,N/A,,Clear,230,2014-02-22 00:32:00
5:44 PM,26.6,3.2,37,29.96,10.0,West,6.9,-,N/A,,Clear,260,2014-02-22 00:44:00
6:13 PM,26.6,5.0,40,29.96,10.0,WSW,4.6,-,N/A,,Clear,240,2014-02-22 01:13:00
6:29 PM,26.6,6.8,43,29.97,10.0,West,5.8,-,N/A,,Clear,260,2014-02-22 01:29:00
6:47 PM,26.6,8.6,47,29.97,10.0,SW,6.9,-,N/A,,Clear,220,2014-02-22 01:47:00
7:09 PM,23.0,8.6,54,29.98,10.0,SW,3.5,-,N/A,,Clear,230,2014-02-22 02:09:00
7:33 PM,23.0,8.6,54,29.97,10.0,WSW,5.8,-,N/A,,Clear,250,2014-02-22 02:33:00
7:54 PM,23.0,8.6,54,29.97,10.0,WSW,4.6,-,N/A,,Clear,240,2014-02-22 02:54:00
8:12 PM,23.0,8.6,54,29.97,10.0,SW,6.9,-,N/A,,Clear,230,2014-02-22 03:12:00
8:25 PM,23.0,8.6,54,29.97,10.0,SW,5.8,-,N/A,,Clear,230,2014-02-22 03:25:00
8:54 PM,23.0,8.6,54,29.97,10.0,SW,6.9,-,N/A,,Clear,230,2014-02-22 03:54:00
9:12 PM,23.0,8.6,54,29.97,10.0,SW,8.1,-,N/A,,Clear,230,2014-02-22 04:12:00
9:23 PM,23.0,8.6,54,29.96,10.0,SW,6.9,-,N/A,,Clear,230,2014-02-22 04:23:00
9:51 PM,21.2,6.8,54,29.96,10.0,SW,6.9,-,N/A,,Clear,230,2014-02-22 04:51:00
10:13 PM,23.0,5.0,46,29.95,10.0,SW,10.4,28.8,N/A,,Clear,230,2014-02-22 05:13:00
10:32 PM,21.2,5.0,50,29.95,10.0,SW,11.5,19.6,N/A,,Clear,220,2014-02-22 05:32:00
10:54 PM,21.2,5.0,50,29.95,10.0,SW,9.2,26.5,N/A,,Clear,230,2014-02-22 05:54:00
11:12 PM,21.2,3.2,46,29.95,10.0,SW,11.5,20.7,N/A,,Clear,220,2014-02-22 06:12:00
11:33 PM,21.2,3.2,46,29.94,10.0,SW,10.4,26.5,N/A,,Clear,220,2014-02-22 06:33:00
11:48 PM,21.2,3.2,46,29.94,10.0,SW,9.2,23.0,N/A,,Clear,230,2014-02-22 06:48:00